Find Starlink 33576

NORAD ID: 62775 Int'l Des: 2025-015 Owner: SPXS Country: US Constellation: starlink operational
LEOCIRCULAR

当前视图

正在加载3D地球...

About Starlink 33576

Starlink 33576 (NORAD 62775) is a starlink constellation satellite (v2 mini) launched Jan 21, 2025 by SPXS of US. It operates in LEO, CIRCULAR orbit with a mass of 575.00 kg.

关于 Starlink 33576

正在加载描述...

即将过境

Passes for default location (London). Set your location on the main map for personalized predictions.

高度历史

Loading altitude history...

两行轨道根数

1 62775U 25015T 26171.38269955 .00009356 00000-0 28767-3 0 9990
2 62775 53.1588 204.0641 0001431 95.5775 264.5390 15.34402988 80161
Epoch: Jun 20, 2026 • Age: 27 hours

当前状态

高度 465.3 km
速度 7.64 km/s
星下点 39.86°N, 114.06°W
发射日期 Jan 21, 2025
运行时间 1.4 years
类型 internet

技术详情

分类 Payload
质量 575.00 kg
干质量 530.00 kg
总质量 575.00 kg
长度 0.30 m
直径 4.10 m
跨度 29.00 m
形状 Box + pan
制造商 SPXS
平台类型 Starlink V2MO
阶段状态 In Orbit
所有者/国家 SPXS/US

Most Searched